Regional Weather Roundup
Issued by NWS Albany, NY

Home | Current Version | Previous Version | Text Only | Print | Product List | Glossary On
Versions: 1 2 3 4 5 6 7 8 9 10 11 12 13 14 15 16 17 18 19 20 21 22 23 24 25 26 27 28 29 30 31 32 33 34 35 36 37 38 39 40 41 42 43 44 45 46 47 48 49 50
000
ASUS41 KALY 300510
RWRALY

NEW YORK STATE HOURLY WEATHER ROUNDUP
NATIONAL WEATHER SERVICE ALBANY NY
100 AM EDT FRI SEP 30 2016

NOTE: "FAIR" INDICATES FEW OR NO CLOUDS BELOW 12,000 FEET WITH NO
SIGNIFICANT WEATHER AND/OR NO OBSTRUCTIONS TO VISIBILITY.

NYZ032-033-038>043-046>054-057>066-NYZ062>081-082-084-300600-
EAST


CITY           SKY/WX    TMP DP  RH WIND       PRES   REMARKS
ALBANY         CLOUDY    57  42  57 E10       30.45F
GLENS FALLS    CLOUDY    57  42  57 NE8       30.46S
POUGHKEEPSIE   CLOUDY    56  44  64 NE6       30.41R
NEWBURGH       MOCLDY    55  46  71 E18       30.42S
MONTGOMERY     MOCLDY    57  46  66 NE10      30.40S
WHITE PLAINS   LGT RAIN  54  48  80 NE12      30.37S
ISLIP          CLOUDY    59  53  80 NE13G21   30.36S
NEW YORK CITY  CLOUDY    60  54  80 NE26G33   30.35F
CENTRAL PARK   CLOUDY    58  50  75 E9        30.38S
$$

NYZ005>009-017-018-044>046-055-056-300600-
CENTRAL


CITY           SKY/WX    TMP DP  RH WIND       PRES   REMARKS
FULTON         CLOUDY    59  46  62 VRB6      30.38S
SYRACUSE       MOCLDY    57  47  68 E7        30.36F
ROME           PTCLDY    57  46  66 E7        30.42S
ELMIRA         CLOUDY    58  50  75 E3        30.33S
BINGHAMTON     LGT RAIN  53  45  74 E7        30.34S
MONTICELLO     CLOUDY    52  41  66 E15G24    30.38F
$$

NYZ026>034-041>043-087-300600-
NORTH


CITY           SKY/WX    TMP DP  RH WIND       PRES   REMARKS
WATERTOWN      CLOUDY    52  48  86 E3        30.41S
FORT DRUM      NOT AVBL
OGDENSBURG     FAIR      56  48  74 NE6       30.45F
MASSENA        CLOUDY    55  45  68 NE8       30.48S
SARANAC LAKE   CLOUDY    53  45  74 NE5       30.44F
PLATTSBURGH    CLOUDY    54  45  71 NW3       30.47F
$$

NYZ001>004-010>016-019>021-085-300600-
WEST


CITY           SKY/WX    TMP DP  RH WIND       PRES   REMARKS
NIAGARA FALLS  CLOUDY    59  49  69 E9        30.31F
BUFFALO        CLOUDY    57  49  74 NE8       30.31S
DUNKIRK        CLOUDY    59  54  83 NE9       30.26F
JAMESTOWN      MOCLDY    55  52  88 E9        30.25F
WELLSVILLE     CLOUDY    53  49  86 SE9       30.32F
ROCHESTER      CLOUDY    58  50  75 E12       30.35F
PENN YAN       CLOUDY    56  52  86 CALM      30.35F
$$

             KEY
       WCI = WIND CHILL INDEX
       VSB = VISIBILITY
       HX  = HEAT INDEX
$$



USA.gov is the U.S. government's official web portal to all federal, state and local government web resources and services.